Aérodrome :
LOGIN :

S'inscrire | Disclaimer

   EN    FR    IT 

 










Légende :    VFR   VFR Marginal   IFR   IFR Intensif   IFR Très Intensif
Visi : 
Plafond : 
>= 8 km
>= 3000ft
5 à 8 km
1000 à 3000 ft
1500m à 5 km
500 à 1000 ft
800 à 1500m
200 à 500 ft
< 800m
< 200 ft
Symboles :   Orages  Brouillard  Fortes neiges  Fortes précipitations  Vent > 20 kt
SIGMETs :   Divers  Orages  Givrage  Turbulence  Onde Orograph.  Cendres Volcan.







- Altitude de l'aérodrome : 7 ft
- Code IATA : POW


LJPZ - Portoroz

DERNIER METAR :
  • 261830Z 19003KT 130V210 CAVOK 21/13 Q1017

METARs EXPIRÉS :
  • 261800Z 22004KT CAVOK 22/13 Q1017
  • 261730Z 25006KT CAVOK 22/12 Q1017
  • 261700Z 24007KT CAVOK 22/12 Q1017
  • 261630Z 25008KT 220V280 CAVOK 23/13 Q1016
  • 261600Z 31007KT 280V340 CAVOK 23/12 Q1016

TAF TAF LJPZ
Valide du 26 à 18h jusqu'au 27 à 03h UTC


261700Z 2618/2703 26007KT CAVOK
BECMG 2618/2621 12006KT
Pas de NOTAMs connus pour ce terrain.



MET'MAP, la Météo Aéronautique d'un coup d'oeil ! - Copyright ORBIFLY Décembre 2007 - Disclaimer

ORBIFLY MET'MAP TEAM :

Programmation & Développement : Alexandra Zaïnal
Conception & Développement : Baudouin d'Aumeries
Co-Programmation & Développement : Marc-Olivier Méhu
Soutien technique & logistique : Manuel Goepfert

Contact : metmap@orbifly.com




SOURCES & CREDITS :

   NOAA